Location: Kra?nica
(53.4833°N, 14.6167°E)
Time: 16:18:54
(UTC+00:00)

Cosmos 405 Rocket - Pass Details

Date: 23 May 2024
Orbit: 456 x 504 km, 81.3° (Epoch: 13 June)

Event Time Altitude Azimuth Distance (km) Brightness Sun altitude
Rises 01:32:49 0° 350° (N) 2,513 6.9 -8.7°
Reaches altitude 10° 01:34:57 10° 357° (N) 1,639 6.0 -8.5°
Maximum altitude 01:38:26 47° 72° (ENE) 637 3.6 -8.2°
Drops below altitude 10° 01:41:56 10° 148° (SSE) 1,651 5.1 -7.9°
Sets 01:44:05 0° 154° (SSE) 2,535 6.0 -7.7°
